WZZ8HY EDLW-LYBE

Flight info

Callsign WZZ8HY
Flight time 1h 47m
Altitude 33000
Route GMH8Q GMH Q603 TESGA DCT OSBIT DCT TENLO DCT LAMSI DCT SITNI DCT SASAL DCT BABIT DCT RIGMU RIGMU2C
Aircraft A21N/M-SDE2E3FGHIRWXY/LB1

Departure

Time 2026-04-28 16:38
Airport Dortmund Airport (EDLW)

Arrival

Time 2026-04-28 18:25
Airport Belgrade Nikola Tesla Airport (LYBE)
Time Latitude Longitude Altitude Speed Heading
2026-04-28 15:23 51.51390 7.60941 449 ft 0 kts 143°
2026-04-28 16:27 51.51404 7.60924 450 ft 4 kts 143°
2026-04-28 16:27 51.51441 7.60881 453 ft 4 kts 138°
2026-04-28 16:28 51.51442 7.60864 454 ft 4 kts 61°
2026-04-28 16:28 51.51432 7.60840 455 ft 2 kts 39°
2026-04-28 16:28 51.51424 7.60840 454 ft 4 kts 116°
2026-04-28 16:28 51.51426 7.60815 455 ft 2 kts 60°
2026-04-28 16:33 51.51429 7.60825 455 ft 3 kts 62°
2026-04-28 16:33 51.51450 7.60887 454 ft 7 kts 61°
2026-04-28 16:33 51.51475 7.60957 452 ft 8 kts 61°
2026-04-28 16:34 51.51501 7.61032 451 ft 7 kts 58°
2026-04-28 16:34 51.51549 7.61053 449 ft 8 kts 336°
2026-04-28 16:34 51.51561 7.60969 447 ft 9 kts 252°
2026-04-28 16:34 51.51527 7.60871 443 ft 11 kts 241°
2026-04-28 16:35 51.51488 7.60758 445 ft 12 kts 240°
2026-04-28 16:35 51.51443 7.60631 440 ft 14 kts 240°
2026-04-28 16:35 51.51392 7.60490 442 ft 15 kts 240°
2026-04-28 16:35 51.51367 7.60330 433 ft 16 kts 294°
2026-04-28 16:36 51.51394 7.60287 432 ft 2 kts 332°
2026-04-28 16:36 51.51410 7.60273 431 ft 3 kts 331°
2026-04-28 16:36 51.51438 7.60254 430 ft 5 kts 342°
2026-04-28 16:36 51.51478 7.60258 436 ft 6 kts 21°
2026-04-28 16:37 51.51511 7.60311 425 ft 7 kts 57°
2026-04-28 16:37 51.51540 7.60393 423 ft 16 kts 60°
2026-04-28 16:37 51.51750 7.60983 424 ft 107 kts 61°
2026-04-28 16:38 51.52884 7.64242 1678 ft 190 kts 61°
2026-04-28 16:38 51.53560 7.66204 2801 ft 207 kts 62°
2026-04-28 16:38 51.54236 7.68165 3708 ft 202 kts 61°
2026-04-28 16:38 51.54936 7.70169 4262 ft 213 kts 61°
2026-04-28 16:39 51.55713 7.72368 4536 ft 242 kts 60°
2026-04-28 16:39 51.56406 7.74986 4710 ft 269 kts 81°
2026-04-28 16:39 51.56329 7.77984 5220 ft 272 kts 105°
2026-04-28 16:39 51.55511 7.80723 6056 ft 274 kts 128°
2026-04-28 16:40 51.54088 7.82734 6889 ft 275 kts 152°
2026-04-28 16:40 51.52267 7.83684 7679 ft 278 kts 175°
2026-04-28 16:40 51.50350 7.83392 8449 ft 280 kts 198°
2026-04-28 16:40 51.48670 7.81905 9178 ft 283 kts 221°
2026-04-28 16:41 51.47351 7.79543 9917 ft 287 kts 229°
2026-04-28 16:41 51.45822 7.77360 10321 ft 304 kts 212°
2026-04-28 16:41 51.43833 7.75975 10610 ft 323 kts 194°
2026-04-28 16:41 51.41530 7.75670 10880 ft 342 kts 175°
2026-04-28 16:42 51.39183 7.76552 11395 ft 352 kts 161°
2026-04-28 16:42 51.36875 7.77905 12093 ft 356 kts 160°
2026-04-28 16:42 51.34544 7.79289 12803 ft 359 kts 160°
2026-04-28 16:42 51.32181 7.80662 13496 ft 363 kts 160°
2026-04-28 16:43 51.29874 7.81984 14155 ft 366 kts 161°
2026-04-28 16:43 51.27461 7.83348 14824 ft 370 kts 161°
2026-04-28 16:43 51.25022 7.84722 15476 ft 374 kts 161°
2026-04-28 16:43 51.22564 7.86103 16112 ft 377 kts 161°
2026-04-28 16:44 51.20070 7.87499 16736 ft 381 kts 161°
2026-04-28 16:44 51.17572 7.88962 17335 ft 384 kts 157°
2026-04-28 16:44 51.15211 7.90988 17922 ft 388 kts 148°
2026-04-28 16:44 51.12926 7.93315 18512 ft 392 kts 147°
2026-04-28 16:45 51.10659 7.95656 19058 ft 395 kts 147°
2026-04-28 16:45 51.08342 7.98036 19621 ft 398 kts 147°
2026-04-28 16:45 51.06006 8.00421 20157 ft 401 kts 148°
2026-04-28 16:45 51.03638 8.02832 20684 ft 405 kts 148°
2026-04-28 16:46 51.01257 8.05253 21185 ft 408 kts 148°
2026-04-28 16:46 50.98856 8.07680 21682 ft 411 kts 148°
2026-04-28 16:46 50.96433 8.10128 22163 ft 414 kts 148°
2026-04-28 16:46 50.93994 8.12590 22632 ft 417 kts 148°
2026-04-28 16:47 50.91535 8.15063 23088 ft 420 kts 148°
2026-04-28 16:47 50.89093 8.17525 23517 ft 423 kts 148°
2026-04-28 16:47 50.86602 8.20029 23951 ft 426 kts 148°
2026-04-28 16:47 50.84087 8.22539 24380 ft 429 kts 148°
2026-04-28 16:48 50.81561 8.25058 24792 ft 431 kts 148°
2026-04-28 16:48 50.79017 8.27595 25189 ft 434 kts 148°
2026-04-28 16:48 50.76458 8.30157 25582 ft 437 kts 148°
2026-04-28 16:48 50.73889 8.32739 25960 ft 439 kts 148°
2026-04-28 16:49 50.71298 8.35326 26339 ft 442 kts 148°
2026-04-28 16:49 50.68690 8.37910 26699 ft 444 kts 148°
2026-04-28 16:49 50.66098 8.40475 27049 ft 447 kts 148°
2026-04-28 16:49 50.63469 8.43083 27396 ft 449 kts 148°
2026-04-28 16:50 50.60815 8.45715 27721 ft 451 kts 148°
2026-04-28 16:50 50.58154 8.48351 28058 ft 454 kts 148°
2026-04-28 16:50 50.55476 8.50997 28382 ft 456 kts 148°
2026-04-28 16:50 50.52785 8.53663 28699 ft 458 kts 148°
2026-04-28 16:51 50.50083 8.56343 28995 ft 460 kts 148°
2026-04-28 16:51 50.47417 8.59140 29267 ft 462 kts 143°
2026-04-28 16:51 50.45019 8.62519 29526 ft 465 kts 133°
2026-04-28 16:51 50.43049 8.66533 29850 ft 465 kts 122°
2026-04-28 16:52 50.41512 8.70979 30204 ft 464 kts 116°
2026-04-28 16:52 50.40102 8.75535 30553 ft 464 kts 116°
2026-04-28 16:52 50.38722 8.80025 30875 ft 463 kts 116°
2026-04-28 16:52 50.37305 8.84555 31212 ft 462 kts 116°
2026-04-28 16:53 50.35881 8.89060 31527 ft 462 kts 117°
2026-04-28 16:53 50.34453 8.93557 31824 ft 461 kts 117°
2026-04-28 16:53 50.33021 8.98055 32128 ft 461 kts 117°
2026-04-28 16:53 50.31587 9.02535 32394 ft 460 kts 117°
2026-04-28 16:54 50.30144 9.07000 32666 ft 460 kts 117°
2026-04-28 16:54 50.28706 9.11464 32930 ft 459 kts 117°
2026-04-28 16:54 50.27273 9.15917 33186 ft 459 kts 117°
2026-04-28 16:54 50.26323 9.18865 33344 ft 458 kts 117°
2026-04-28 16:55 50.24424 9.24746 33658 ft 458 kts 117°
2026-04-28 16:55 50.22991 9.29185 33883 ft 457 kts 117°
2026-04-28 16:55 50.21563 9.33616 34098 ft 457 kts 117°
2026-04-28 16:55 50.20132 9.38038 34313 ft 456 kts 117°
2026-04-28 16:56 50.18707 9.42461 34505 ft 456 kts 117°
2026-04-28 16:56 50.17280 9.46880 34693 ft 456 kts 117°
2026-04-28 16:56 50.15849 9.51289 34884 ft 455 kts 117°
2026-04-28 16:56 50.14413 9.55682 35024 ft 455 kts 117°
2026-04-28 16:57 50.12975 9.60067 35036 ft 454 kts 117°
2026-04-28 16:57 50.10121 9.68766 35016 ft 454 kts 117°
2026-04-28 16:58 50.07232 9.77496 35003 ft 453 kts 119°
2026-04-28 16:58 50.03854 9.85776 34998 ft 453 kts 123°
2026-04-28 16:59 50.00385 9.93940 34994 ft 453 kts 123°
2026-04-28 16:59 49.96943 10.02057 35000 ft 453 kts 123°
2026-04-28 17:00 49.93471 10.10210 34996 ft 453 kts 124°
2026-04-28 17:00 49.89993 10.18357 34995 ft 453 kts 124°
2026-04-28 17:01 49.86511 10.26488 34998 ft 453 kts 124°
2026-04-28 17:01 49.83047 10.34560 35003 ft 453 kts 124°
2026-04-28 17:02 49.79553 10.42670 35004 ft 453 kts 124°
2026-04-28 17:02 49.76058 10.50772 35000 ft 453 kts 124°
2026-04-28 17:03 49.70797 10.62889 34996 ft 453 kts 124°
2026-04-28 17:03 49.67304 10.70907 35003 ft 453 kts 124°
2026-04-28 17:04 49.62023 10.82981 34999 ft 453 kts 124°
2026-04-28 17:05 49.56731 10.95028 35006 ft 453 kts 124°
2026-04-28 17:06 49.51658 11.07222 34998 ft 453 kts 117°
2026-04-28 17:06 49.47418 11.20206 35000 ft 453 kts 117°
2026-04-28 17:07 49.44583 11.28847 35004 ft 453 kts 117°
2026-04-28 17:07 49.41730 11.37479 35006 ft 453 kts 117°
2026-04-28 17:08 49.38863 11.46085 34997 ft 452 kts 117°
2026-04-28 17:08 49.36026 11.54623 34998 ft 452 kts 117°
2026-04-28 17:09 49.33160 11.63214 34998 ft 452 kts 117°
2026-04-28 17:09 49.30282 11.71784 34999 ft 452 kts 117°
2026-04-28 17:10 49.27402 11.80349 34998 ft 452 kts 117°
2026-04-28 17:10 49.24543 11.88834 34980 ft 452 kts 117°
2026-04-28 17:11 49.21669 11.97322 35000 ft 452 kts 117°
2026-04-28 17:11 49.18765 12.05852 34997 ft 452 kts 118°
2026-04-28 17:12 49.15863 12.14379 35004 ft 452 kts 118°
2026-04-28 17:12 49.12948 12.22903 35006 ft 452 kts 118°
2026-04-28 17:13 49.10046 12.31348 35006 ft 452 kts 118°
2026-04-28 17:13 49.07124 12.39844 35009 ft 452 kts 118°
2026-04-28 17:14 49.04195 12.48336 34997 ft 452 kts 118°
2026-04-28 17:14 49.01260 12.56813 35005 ft 452 kts 118°
2026-04-28 17:15 48.98311 12.65283 35002 ft 452 kts 118°
2026-04-28 17:15 48.95383 12.73681 35008 ft 452 kts 118°
2026-04-28 17:16 48.92414 12.82119 35002 ft 452 kts 118°
2026-04-28 17:16 48.89452 12.90550 35003 ft 452 kts 118°
2026-04-28 17:17 48.86490 12.98981 35004 ft 452 kts 118°
2026-04-28 17:17 48.83538 13.07334 35003 ft 452 kts 118°
2026-04-28 17:18 48.80564 13.15721 35001 ft 452 kts 118°
2026-04-28 17:18 48.77574 13.24110 34997 ft 452 kts 118°
2026-04-28 17:19 48.74593 13.32485 35001 ft 452 kts 118°
2026-04-28 17:19 48.71601 13.40849 35000 ft 452 kts 118°
2026-04-28 17:20 48.69110 13.47792 35007 ft 452 kts 119°
2026-04-28 17:20 48.65601 13.57483 34999 ft 452 kts 121°
2026-04-28 17:21 48.62063 13.65326 35000 ft 451 kts 126°
2026-04-28 17:22 48.56598 13.76918 35001 ft 451 kts 126°
2026-04-28 17:22 48.52979 13.84584 34998 ft 451 kts 126°
2026-04-28 17:23 48.47507 13.96136 34989 ft 451 kts 126°
2026-04-28 17:23 48.43852 14.03833 35002 ft 451 kts 126°
2026-04-28 17:24 48.40194 14.11514 34997 ft 451 kts 126°
2026-04-28 17:24 48.36532 14.19186 34998 ft 451 kts 126°
2026-04-28 17:25 48.31052 14.30623 34997 ft 451 kts 126°
2026-04-28 17:26 48.27374 14.38265 34999 ft 451 kts 126°
2026-04-28 17:26 48.23694 14.45893 35002 ft 451 kts 126°
2026-04-28 17:27 48.20011 14.53508 35002 ft 451 kts 126°
2026-04-28 17:27 48.16349 14.61053 35003 ft 451 kts 126°
2026-04-28 17:28 48.12652 14.68639 34998 ft 451 kts 126°
2026-04-28 17:28 48.07105 14.80006 35000 ft 451 kts 126°
2026-04-28 17:29 48.03501 14.87660 34998 ft 451 kts 124°
2026-04-28 17:30 47.98220 14.99225 34998 ft 451 kts 124°
2026-04-28 17:30 47.92904 15.10804 35003 ft 451 kts 124°
2026-04-28 17:31 47.87577 15.22356 35007 ft 451 kts 125°
2026-04-28 17:32 47.82267 15.33837 34996 ft 451 kts 125°
2026-04-28 17:32 47.78699 15.41515 34999 ft 451 kts 125°
2026-04-28 17:33 47.75127 15.49177 34998 ft 451 kts 125°
2026-04-28 17:33 47.72759 15.54247 34996 ft 451 kts 125°
2026-04-28 17:34 47.67996 15.64421 35007 ft 451 kts 125°
2026-04-28 17:34 47.64411 15.72051 35002 ft 451 kts 125°
2026-04-28 17:35 47.60822 15.79677 35010 ft 451 kts 125°
2026-04-28 17:35 47.57227 15.87291 35006 ft 451 kts 125°
2026-04-28 17:36 47.53630 15.94896 35003 ft 451 kts 125°
2026-04-28 17:36 47.50061 16.02431 35000 ft 450 kts 125°
2026-04-28 17:37 47.46464 16.10010 35002 ft 450 kts 125°
2026-04-28 17:37 47.42853 16.17567 35004 ft 450 kts 126°
2026-04-28 17:38 47.39237 16.25125 35001 ft 450 kts 125°
2026-04-28 17:38 47.35625 16.32670 34994 ft 450 kts 126°
2026-04-28 17:39 47.32011 16.40134 35000 ft 450 kts 126°
2026-04-28 17:40 47.26456 16.51280 35001 ft 450 kts 128°
2026-04-28 17:40 47.22610 16.58553 35004 ft 450 kts 128°
2026-04-28 17:41 47.18760 16.65810 35005 ft 450 kts 128°
2026-04-28 17:41 47.14932 16.73021 34994 ft 450 kts 128°
2026-04-28 17:42 47.11076 16.80251 34997 ft 450 kts 128°
2026-04-28 17:42 47.07213 16.87479 34995 ft 450 kts 128°
2026-04-28 17:43 47.03344 16.94705 35002 ft 450 kts 128°
2026-04-28 17:43 46.99476 17.01914 34999 ft 450 kts 128°
2026-04-28 17:44 46.95629 17.09058 35007 ft 450 kts 128°
2026-04-28 17:44 46.91749 17.16253 35007 ft 450 kts 128°
2026-04-28 17:45 46.87870 17.23434 35004 ft 450 kts 129°
2026-04-28 17:45 46.83982 17.30604 35007 ft 450 kts 129°
2026-04-28 17:46 46.80091 17.37767 34987 ft 450 kts 129°
2026-04-28 17:46 46.76222 17.44868 35003 ft 449 kts 129°
2026-04-28 17:47 46.72327 17.51988 35005 ft 449 kts 129°
2026-04-28 17:47 46.68419 17.59097 35001 ft 450 kts 129°
2026-04-28 17:48 46.64509 17.66211 35001 ft 450 kts 129°
2026-04-28 17:48 46.60598 17.73303 35006 ft 450 kts 129°
2026-04-28 17:49 46.56705 17.80338 35006 ft 450 kts 129°
2026-04-28 17:49 46.52788 17.87418 35001 ft 450 kts 129°
2026-04-28 17:50 46.48863 17.94485 35000 ft 450 kts 129°
2026-04-28 17:50 46.44934 18.01540 35001 ft 449 kts 129°
2026-04-28 17:51 46.41000 18.08581 35004 ft 450 kts 129°
2026-04-28 17:51 46.37085 18.15566 34992 ft 450 kts 129°
2026-04-28 17:52 46.33146 18.22601 35008 ft 449 kts 129°
2026-04-28 17:52 46.27228 18.33117 35005 ft 450 kts 129°
2026-04-28 17:53 46.23943 18.38938 34995 ft 449 kts 129°
2026-04-28 17:53 46.19347 18.47065 34994 ft 449 kts 129°
2026-04-28 17:54 46.15384 18.54046 35006 ft 449 kts 129°
2026-04-28 17:54 46.12091 18.59836 35000 ft 449 kts 129°
2026-04-28 17:55 46.08127 18.66803 35003 ft 449 kts 130°
2026-04-28 17:55 46.03504 18.74879 35007 ft 449 kts 130°
2026-04-28 17:56 45.99532 18.81813 34998 ft 449 kts 130°
2026-04-28 17:56 45.96229 18.87564 35002 ft 449 kts 130°
2026-04-28 17:57 45.91907 18.93996 34997 ft 448 kts 143°
2026-04-28 17:57 45.86695 18.98898 35011 ft 448 kts 148°
2026-04-28 17:58 45.80554 19.04410 35000 ft 448 kts 148°
2026-04-28 17:58 45.76144 19.08417 35002 ft 448 kts 148°
2026-04-28 17:59 45.70909 19.13169 35000 ft 449 kts 148°
2026-04-28 17:59 45.65651 19.17927 34267 ft 447 kts 148°
2026-04-28 18:00 45.63006 19.20317 33167 ft 452 kts 148°
2026-04-28 18:00 45.60339 19.22723 31990 ft 456 kts 148°
2026-04-28 18:00 45.57645 19.25155 30790 ft 460 kts 148°
2026-04-28 18:00 45.54934 19.27595 29666 ft 461 kts 148°
2026-04-28 18:01 45.52247 19.30016 28976 ft 451 kts 148°
2026-04-28 18:01 45.49668 19.32335 28448 ft 438 kts 148°
2026-04-28 18:01 45.47140 19.34607 28076 ft 422 kts 148°
2026-04-28 18:01 45.44649 19.36841 27783 ft 422 kts 148°
2026-04-28 18:02 45.42257 19.39243 27516 ft 421 kts 140°
2026-04-28 18:02 45.40214 19.42207 27259 ft 420 kts 128°
2026-04-28 18:02 45.38607 19.45671 27034 ft 419 kts 121°
2026-04-28 18:02 45.37171 19.49258 26662 ft 416 kts 120°
2026-04-28 18:03 45.35758 19.52822 26119 ft 413 kts 120°
2026-04-28 18:03 45.34334 19.56351 25528 ft 411 kts 120°
2026-04-28 18:03 45.32919 19.59808 24936 ft 409 kts 121°
2026-04-28 18:03 45.31487 19.63288 24318 ft 408 kts 121°
2026-04-28 18:04 45.30055 19.66757 23730 ft 406 kts 121°
2026-04-28 18:04 45.28633 19.70199 23138 ft 403 kts 121°
2026-04-28 18:04 45.27220 19.73622 22574 ft 400 kts 121°
2026-04-28 18:04 45.25815 19.77024 21988 ft 398 kts 121°
2026-04-28 18:05 45.24416 19.80403 21391 ft 396 kts 121°
2026-04-28 18:05 45.23493 19.82627 21017 ft 394 kts 121°
2026-04-28 18:05 45.21640 19.87083 20273 ft 390 kts 121°
2026-04-28 18:05 45.20280 19.90340 19742 ft 387 kts 121°
2026-04-28 18:06 45.18920 19.93602 19250 ft 383 kts 121°
2026-04-28 18:06 45.17568 19.96841 18762 ft 380 kts 121°
2026-04-28 18:06 45.16227 20.00049 18272 ft 378 kts 121°
2026-04-28 18:06 45.14892 20.03247 17813 ft 376 kts 121°
2026-04-28 18:07 45.13559 20.06434 17354 ft 375 kts 121°
2026-04-28 18:07 45.12231 20.09605 16885 ft 374 kts 121°
2026-04-28 18:07 45.10905 20.12769 16403 ft 373 kts 121°
2026-04-28 18:07 45.09598 20.15880 15914 ft 372 kts 121°
2026-04-28 18:08 45.08289 20.19000 15479 ft 366 kts 121°
2026-04-28 18:08 45.07167 20.21666 15100 ft 359 kts 121°
2026-04-28 18:08 45.05901 20.24671 14643 ft 353 kts 121°
2026-04-28 18:08 45.04654 20.27628 14175 ft 347 kts 121°
2026-04-28 18:09 45.03428 20.30533 13730 ft 342 kts 121°
2026-04-28 18:09 45.02211 20.33414 13298 ft 340 kts 121°
2026-04-28 18:09 45.01025 20.36219 13005 ft 330 kts 121°
2026-04-28 18:09 44.99882 20.38918 12772 ft 318 kts 121°
2026-04-28 18:10 44.98768 20.41546 12566 ft 307 kts 121°
2026-04-28 18:10 44.97684 20.44102 12193 ft 301 kts 121°
2026-04-28 18:10 44.96611 20.46629 11748 ft 299 kts 121°
2026-04-28 18:10 44.95545 20.49138 11290 ft 297 kts 121°
2026-04-28 18:11 44.94486 20.51630 10835 ft 295 kts 121°
2026-04-28 18:11 44.93432 20.54107 10435 ft 294 kts 121°
2026-04-28 18:11 44.92383 20.56569 10142 ft 293 kts 121°
2026-04-28 18:11 44.91334 20.59030 9842 ft 291 kts 121°
2026-04-28 18:12 44.90289 20.61465 9485 ft 289 kts 123°
2026-04-28 18:12 44.89056 20.63642 9225 ft 288 kts 136°
2026-04-28 18:12 44.87566 20.65527 9064 ft 287 kts 140°
2026-04-28 18:12 44.86049 20.67353 8927 ft 287 kts 140°
2026-04-28 18:13 44.84533 20.69178 8800 ft 286 kts 140°
2026-04-28 18:13 44.83025 20.71004 8675 ft 286 kts 140°
2026-04-28 18:13 44.81522 20.72828 8550 ft 285 kts 140°
2026-04-28 18:13 44.80020 20.74652 8426 ft 285 kts 140°
2026-04-28 18:14 44.78543 20.76448 8302 ft 284 kts 140°
2026-04-28 18:14 44.77071 20.78240 8171 ft 274 kts 140°
2026-04-28 18:14 44.75664 20.79951 8032 ft 261 kts 140°
2026-04-28 18:14 44.74320 20.81584 7890 ft 250 kts 140°
2026-04-28 18:15 44.73005 20.83180 7754 ft 249 kts 140°
2026-04-28 18:15 44.71695 20.84767 7627 ft 249 kts 140°
2026-04-28 18:15 44.70385 20.86354 7492 ft 248 kts 140°
2026-04-28 18:15 44.69078 20.87932 7378 ft 248 kts 141°
2026-04-28 18:16 44.67622 20.89185 7238 ft 246 kts 163°
2026-04-28 18:16 44.65940 20.89365 7109 ft 245 kts 190°
2026-04-28 18:16 44.64336 20.88713 6896 ft 243 kts 208°
2026-04-28 18:16 44.63059 20.87199 6585 ft 242 kts 234°
2026-04-28 18:17 44.62394 20.85056 6256 ft 241 kts 260°
2026-04-28 18:17 44.62455 20.82724 5931 ft 241 kts 284°
2026-04-28 18:17 44.63033 20.80527 5624 ft 240 kts 292°
2026-04-28 18:17 44.63698 20.78377 5305 ft 239 kts 293°
2026-04-28 18:18 44.64348 20.76234 5003 ft 238 kts 292°
2026-04-28 18:18 44.64979 20.74092 4691 ft 237 kts 291°
2026-04-28 18:18 44.65582 20.71995 4368 ft 236 kts 291°
2026-04-28 18:18 44.65983 20.70580 4153 ft 235 kts 291°
2026-04-28 18:19 44.66767 20.67787 3865 ft 224 kts 291°
2026-04-28 18:19 44.67310 20.65819 3837 ft 212 kts 290°
2026-04-28 18:19 44.67830 20.63876 3854 ft 212 kts 290°
2026-04-28 18:19 44.68363 20.61946 3871 ft 212 kts 292°
2026-04-28 18:20 44.68991 20.60073 3876 ft 212 kts 297°
2026-04-28 18:20 44.69709 20.58257 3882 ft 212 kts 300°
2026-04-28 18:20 44.70467 20.56476 3882 ft 212 kts 301°
2026-04-28 18:20 44.71248 20.54713 3878 ft 213 kts 301°
2026-04-28 18:21 44.72033 20.52950 3722 ft 212 kts 301°
2026-04-28 18:21 44.72814 20.51198 3460 ft 211 kts 301°
2026-04-28 18:21 44.73580 20.49480 3248 ft 209 kts 301°
2026-04-28 18:21 44.74333 20.47791 2975 ft 198 kts 301°
2026-04-28 18:22 44.75045 20.46193 2672 ft 188 kts 301°
2026-04-28 18:22 44.75716 20.44687 2386 ft 177 kts 302°
2026-04-28 18:22 44.76347 20.43272 2146 ft 162 kts 303°
2026-04-28 18:22 44.76909 20.42009 1899 ft 147 kts 303°
2026-04-28 18:23 44.77451 20.40791 1699 ft 147 kts 302°
2026-04-28 18:23 44.77987 20.39587 1518 ft 145 kts 303°
2026-04-28 18:23 44.78520 20.38391 1322 ft 144 kts 303°
2026-04-28 18:23 44.79045 20.37212 1156 ft 143 kts 303°
2026-04-28 18:24 44.79572 20.36040 981 ft 141 kts 303°
2026-04-28 18:24 44.79911 20.35270 844 ft 140 kts 303°
2026-04-28 18:24 44.80596 20.33717 581 ft 139 kts 303°
2026-04-28 18:24 44.81106 20.32568 400 ft 138 kts 303°
2026-04-28 18:25 44.81605 20.31453 311 ft 125 kts 303°
2026-04-28 18:25 44.81963 20.30646 311 ft 48 kts 302°
2026-04-28 18:25 44.82126 20.30281 311 ft 29 kts 301°
2026-04-28 18:26 44.82173 20.30025 312 ft 15 kts 285°
2026-04-28 18:26 44.82180 20.29935 312 ft 8 kts 270°
2026-04-28 18:26 44.82174 20.29864 312 ft 10 kts 262°
2026-04-28 18:26 44.82172 20.29758 312 ft 12 kts 267°
2026-04-28 18:27 44.82116 20.29663 313 ft 14 kts 214°
2026-04-28 18:27 44.82042 20.29596 312 ft 8 kts 213°
2026-04-28 18:27 44.81989 20.29548 312 ft 10 kts 212°
2026-04-28 18:27 44.81924 20.29490 312 ft 12 kts 212°
2026-04-28 18:28 44.81847 20.29423 312 ft 14 kts 212°
2026-04-28 18:28 44.81775 20.29359 312 ft 9 kts 212°
2026-04-28 18:28 44.81713 20.29305 311 ft 11 kts 212°
2026-04-28 18:28 44.81700 20.29201 312 ft 12 kts 275°
2026-04-28 18:29 44.81722 20.29123 312 ft 7 kts 303°
2026-04-28 18:29 44.81726 20.29116 312 ft 1 kts 303°
2026-04-28 18:29 44.81734 20.29099 312 ft 3 kts 302°
2026-04-28 18:29 44.81735 20.29097 312 ft 0 kts 302°